Regional Weather Roundup
Issued by NWS Jackson, KY

Home | Current Version | Previous Version | Graphics & Text | Print | Product List | Glossary On
Versions: 1 2 3 4 5 6 7 8 9 10 11 12 13 14 15 16 17 18 19 20 21 22 23 24 25 26 27 28
000
ASUS43 KJKL 241210
RWRJKL

EAST KENTUCKY HOURLY WEATHER ROUNDUP
NATIONAL WEATHER SERVICE JACKSON KY
800 AM EDT TUE MAY 24 2016

NOTE: "FAIR" INDICATES FEW OR NO CLOUDS BELOW 12,000 FEET WITH
NO SIGNIFICANT WEATHER AND/OR OBSTRUCTIONS TO VISIBILITY.

* THESE REPORTS ARE NOT UNDER NWS QUALITY CONTROL AND MAY NOT
  REPORT WEATHER SUCH AS PRECIPITATION AND FOG.

KYZ079-080-083-085-087-088-110-112-115-119-120-241300
...EASTERN KENTUCKY...

CITY           SKY/WX    TMP DP  RH WIND       PRES   REMARKS
JACKSON        SUNNY     57  50  77 CALM      30.14R
6HR MIN TEMP:  53; 6HR MAX TEMP:  60;

LONDON         SUNNY     54  50  86 CALM      30.14R
6HR MIN TEMP:  49; 6HR MAX TEMP:  54;

SOMERSET*      SUNNY     52  52 100 CALM      30.14R
MONTICELLO*    SUNNY     55  51  86 NW9       30.15R
6HR MIN TEMP:  47; 6HR MAX TEMP:  55;

WILLIAMSBURG*  SUNNY     54  54 100 SE3       30.15R
MIDDLESBORO*   SUNNY     51  49  94 CALM      30.17R
6HR MIN TEMP:  46; 6HR MAX TEMP:  51;

HARLAN APT*    PTSUNNY   50  50 100 CALM      30.17R
HAZARD APT*    SUNNY     54  54 100 CALM      30.15R
BLACK MTN*       N/A     57  48  72 SW2         N/A
PIKE CO APT*     N/A     55  52  90 S5        30.15R
BIG SANDY APT* SUNNY     56  53  91 CALM      30.15R
6HR MIN TEMP:  53; 6HR MAX TEMP:  56;

MOREHEAD APT*  SUNNY     57  52  82 CALM      30.14R
ASHLAND*       SUNNY     54  52  94 CALM      30.11R
$$

KYZ035-036-041-042-044-050-067-078-099-241300
...CENTRAL KENTUCKY...

CITY           SKY/WX    TMP DP  RH WIND       PRES   REMARKS
MT STERLING*   SUNNY     57  54  88 CALM      30.14R
FLEMING/MASON* SUNNY     56  53  89 CALM      30.14R
DANVILLE*      SUNNY     54  52  94 SE3       30.12S
RICHMOND*      SUNNY     55  52  88 CALM      30.13R
LEXINGTON      SUNNY     58  52  80 S3        30.12R
6HR MIN TEMP:  51; 6HR MAX TEMP:  58;

FRANKFORT      SUNNY     57  51  80 CALM      30.10R
6HR MIN TEMP:  49; 6HR MAX TEMP:  57;

LOUISVILLE     MOSUNNY   59  52  77 E5        30.09R
6HR MIN TEMP:  56; 6HR MAX TEMP:  64;

LEBANON*         N/A     57  54  88 CALM      30.11R
GLASGOW*       SUNNY     54  52  94 E3        30.10S
BOWLING GREEN  SUNNY     57  53  86 CALM      30.10R
6HR MIN TEMP:  50; 6HR MAX TEMP:  58;

$$

KYZ091>093-OHZ055-061-077-WVZ005-015-034-035-042-241300
...SOUTHERN OHIO/WEST VIRGINIA...

CITY           SKY/WX    TMP DP  RH WIND       PRES   REMARKS
COVINGTON      MOSUNNY   57  53  86 CALM      30.10R
COLUMBUS       SUNNY     57  52  83 S3        30.09R
DAYTON         MOSUNNY   61  51  70 SW7       30.11R
WILMINGTON     SUNNY     60  53  77 SW5       30.11R
HUNTINGTON       N/A     55  52  89 SW5       30.13R
CHARLESTON       N/A     53  52  96 CALM      30.13R FOG
PINEVILLE*     FOG       51  48  92 MISG      30.22R VSB 1/4
BECKLEY          N/A     56  51  84 W3        30.17R
BLUEFIELD        N/A     53  48  83 W7        30.18R
LOGAN CO APT*    N/A     54  54 100 CALM      30.15R
$$

VAZ002-007-008-TNZ017-027-036-066-071-241300
...SOUTHWEST VIRGINIA/EAST TENNESSEE...

CITY           SKY/WX    TMP DP  RH WIND       PRES   REMARKS
WISE*            N/A     55  46  71 CALM      30.19R
JONESVILLE*      N/A     54  50  87 CALM      30.19R
ABINGDON*        N/A     55  51  86 E5        30.18R
BRISTOL        SUNNY     52  49  89 CALM      30.17R
SEVIERVILLE*   SUNNY     52  48  87 CALM      30.15R
KNOXVILLE      MOSUNNY   57  52  83 SW3       30.15R
OAK RIDGE      SUNNY     57  51  80 CALM      30.17R
CROSSVILLE     SUNNY     57  49  74 CALM      30.16R
NASHVILLE      MOSUNNY   59  53  80 CALM      30.10R
$$

...KEY TO REMARKS...
VSB - VISIBILITY IN MILES
WCI - WIND CHILL INDEX
HX  - HEAT INDEX

$$




USA.gov is the U.S. government's official web portal to all federal, state and local government web resources and services.